Location: *
(58.7167°N, 26.1833°E)
Time: 01:59:20
(UTC+00:00)

Cosmos 1833 Rocket - Pass Details

Date: 25 August 2019
Orbit: 834 x 838 km, 71.0° (Epoch: 23 October)

Event Time Altitude Azimuth Distance (km) Brightness Sun altitude
Rises 19:20:49 0° 202° (SSW) 3,381 5.6 -12.0°
Reaches altitude 10° 19:23:16 10° 199° (SSW) 2,449 4.8 -12.2°
Maximum altitude 19:28:48 62° 120° (ESE) 941 2.7 -12.7°
Drops below altitude 10° 19:34:21 10° 41° (NE) 2,461 5.2 -13.2°
Sets 19:36:49 0° 38° (NE) 3,398 6.0 -13.4°
